GW5721 Weather Reports


time (UTC)temp
F
wind
direction
speed
knots
gust
knots
rain 1hr
in
rain 24hr
in
rain mn
in
humidity
%
barometer
mb
20260906194411 105 58 0.9 0.9 0.00 0.00 0.00 33 1011.4
20260906193907 105 51 2.6 2.6 0.00 0.00 0.00 34 1011.4
20260906193401 105 59 0.9 0.9 0.00 0.00 0.00 35 1011.5
20260906192857 104 59 0.9 0.9 0.00 0.00 0.00 34 1011.6
20260906192356 104 63 0.9 0.9 0.00 0.00 0.00 35 1011.6
20260906191855 104 66 0.0 0.9 0.00 0.00 0.00 34 1011.6
20260906191350 104 126 2.6 2.6 0.00 0.00 0.00 34 1011.5
20260906190850 104 140 0.9 0.9 0.00 0.00 0.00 33 1011.9
20260906190344 104 77 0.0 0.0 0.00 0.00 0.00 35 1011.9
20260906185839 104 117 0.9 0.9 0.00 0.00 0.00 34 1011.9
20260906185338 104 86 0.0 0.9 0.00 0.00 0.00 34 1012.1
20260906184837 104 352 1.7 1.7 0.00 0.00 0.00 34 1012.1
20260906184332 104 68 0.9 1.7 0.00 0.00 0.00 34 1012.0
20260906183828 104 114 2.6 2.6 0.00 0.00 0.00 33 1012.2
20260906183324 104 109 1.7 1.7 0.00 0.00 0.00 35 1012.3
20260906182824 104 98 0.9 0.9 0.00 0.00 0.00 35 1012.4
20260906182320 104 305 1.7 1.7 0.00 0.00 0.00 35 1012.5
20260906181819 104 36 0.9 0.9 0.00 0.00 0.00 38 1012.4
20260906181316 103 69 0.9 0.9 0.00 0.00 0.00 36 1012.7
20260906180811 102 37 0.0 0.9 0.00 0.00 0.00 34 1012.7
20260906180306 103 40 1.7 1.7 0.00 0.00 0.00 36 1012.8
20260906175803 104 50 0.9 1.7 0.00 0.00 0.00 36 1013.0
20260906175300 103 66 0.9 0.9 0.00 0.00 0.00 36 1013.1
20260906174758 103 81 0.9 0.9 0.00 0.00 0.00 36 1013.2
20260906174257 102 70 0.0 0.0 0.00 0.00 0.00 36 1013.1
20260906173753 102 346 1.7 1.7 0.00 0.00 0.00 37 1013.3
20260906173248 102 47 0.9 1.7 0.00 0.00 0.00 36 1013.4
20260906172747 102 23 0.9 1.7 0.00 0.00 0.00 37 1013.4
20260906172243 102 86 0.9 0.9 0.00 0.00 0.00 39 1013.4
20260906171737 101 60 0.0 0.0 0.00 0.00 0.00 39 1013.6
20260906171233 101 101 1.7 2.6 0.00 0.00 0.00 37 1013.6
20260906170729 100 47 1.7 2.6 0.00 0.00 0.00 40 1013.7
20260906170224 100 60 0.9 0.9 0.00 0.00 0.00 42 1013.7
20260906165720 100 57 0.0 0.0 0.00 0.00 0.00 43 1014.0
20260906165215 101 72 1.7 1.7 0.00 0.00 0.00 43 1014.1
20260906164714 101 48 0.9 0.9 0.00 0.00 0.00 43 1014.2
20260906164210 100 63 0.0 0.9 0.00 0.00 0.00 45 1014.1
20260906163705 99 103 0.0 0.0 0.00 0.00 0.00 48 1014.3
20260906163201 99 220 1.7 1.7 0.00 0.00 0.00 46 1014.2
20260906162658 100 69 0.9 0.9 0.00 0.00 0.00 46 1014.2
20260906162158 99 51 0.9 0.9 0.00 0.00 0.00 46 1014.2
20260906161653 98 56 0.9 0.9 0.00 0.00 0.00 49 1014.3
20260906161152 98 105 0.0 0.9 0.00 0.00 0.00 48 1014.2
20260906160651 98 81 0.9 0.9 0.00 0.00 0.00 48 1014.2
20260906160150 97 73 0.0 0.0 0.00 0.00 0.00 48 1014.1
20260906155647 96 57 0.0 0.0 0.00 0.00 0.00 50 1014.3
20260906155143 95 62 0.9 0.9 0.00 0.00 0.00 50 1014.2
20260906154638 95 55 0.0 0.0 0.00 0.00 0.00 52 1014.3
20260906154138 95 42 0.9 0.9 0.00 0.00 0.00 50 1014.2
20260906153637 95 51 0.9 0.9 0.00 0.00 0.00 52 1014.1
20260906153132 94 95 0.0 0.9 0.00 0.00 0.00 53 1014.2
20260906152627 94 68 0.0 0.0 0.00 0.00 0.00 55 1014.2
20260906152126 93 67 0.0 0.0 0.00 0.00 0.00 55 1014.1
20260906151621 93 56 0.0 0.0 0.00 0.00 0.00 56 1014.1
20260906151118 92 96 0.0 0.0 0.00 0.00 0.00 56 1014.0
20260906150613 92 102 0.9 0.9 0.00 0.00 0.00 55 1014.1
20260906150108 91 66 0.0 0.0 0.00 0.00 0.00 58 1014.0
20260906145606 90 85 0.9 0.9 0.00 0.00 0.00 58 1013.8
20260906145101 89 64 0.0 0.0 0.00 0.00 0.00 59 1014.0
20260906144555 89 116 0.9 0.9 0.00 0.00 0.00 60 1014.1
20260906144051 88 36 0.9 0.9 0.00 0.00 0.00 61 1014.0
20260906143546 87 115 0.9 0.9 0.00 0.00 0.00 61 1014.0
20260906143043 87 10 0.9 0.9 0.00 0.00 0.00 62 1013.8
20260906142542 86 42 0.0 0.0 0.00 0.00 0.00 63 1013.7
20260906142038 86 50 0.0 0.0 0.00 0.00 0.00 64 1013.7
20260906141537 86 43 0.0 0.0 0.00 0.00 0.00 64 1013.8
20260906141032 86 16 0.9 0.9 0.00 0.00 0.00 64 1013.7
20260906140531 84 62 0.0 0.9 0.00 0.00 0.00 65 1013.7
20260906140031 83 54 0.0 0.0 0.00 0.00 0.00 70 1013.5
20260906135528 82 52 0.0 0.0 0.00 0.00 0.00 72 1013.5
20260906135024 81 60 0.0 0.0 0.00 0.00 0.00 72 1013.3
20260906134519 81 72 0.0 0.0 0.00 0.00 0.00 73 1013.4
20260906134014 80 72 0.0 0.0 0.00 0.00 0.00 73 1013.5
20260906133510 80 69 0.0 0.0 0.00 0.00 0.00 74 1013.5
20260906133005 79 63 0.0 0.0 0.00 0.00 0.00 75 1013.5
20260906132500 79 63 0.0 0.0 0.00 0.00 0.00 76 1013.5
20260906131955 78 59 0.0 0.0 0.00 0.00 0.00 77 1013.5
20260906131451 78 61 0.0 0.0 0.00 0.00 0.00 79 1013.6
20260906130946 78 51 0.0 0.0 0.00 0.00 0.00 80 1013.5
20260906130445 77 51 0.0 0.0 0.00 0.00 0.00 82 1013.6
20260906125940 77 51 0.0 0.0 0.00 0.00 0.00 83 1013.6
20260906125438 76 51 0.0 0.0 0.00 0.00 0.00 85 1013.4
20260906124937 75 68 0.0 0.0 0.00 0.00 0.00 87 1013.4
20260906124433 75 68 0.0 0.0 0.00 0.00 0.00 88 1013.3
20260906123933 75 68 0.0 0.0 0.00 0.00 0.00 89 1013.3
20260906123432 75 68 0.0 0.0 0.00 0.00 0.00 89 1013.3
20260906122927 74 68 0.0 0.0 0.00 0.00 0.00 89 1013.3
20260906122421 74 68 0.0 0.0 0.00 0.00 0.00 90 1013.0
20260906121919 74 68 0.0 0.0 0.00 0.00 0.00 89 1013.0
20260906121414 74 68 0.0 0.0 0.00 0.00 0.00 89 1012.9
20260906120910 74 68 0.0 0.0 0.00 0.00 0.00 89 1012.8
20260906120406 74 68 0.0 0.0 0.00 0.00 0.00 89 1012.8
20260906115902 74 68 0.0 0.0 0.00 0.00 0.00 89 1012.8
20260906115357 74 68 0.0 0.0 0.00 0.00 0.00 89 1012.8
20260906114856 75 68 0.0 0.0 0.00 0.00 0.00 88 1012.8
20260906114351 75 68 0.0 0.0 0.00 0.00 0.00 88 1012.8
20260906113847 75 68 0.0 0.0 0.00 0.00 0.00 88 1012.7
20260906113345 75 68 0.0 0.0 0.00 0.00 0.00 88 1012.6
20260906112841 75 71 0.0 0.0 0.00 0.00 0.00 88 1012.5
20260906112338 75 71 0.0 0.0 0.00 0.00 0.00 88 1012.6
20260906111837 75 72 0.0 0.0 0.00 0.00 0.00 88 1012.5
20260906111337 75 70 0.0 0.0 0.00 0.00 0.00 88 1012.3
20260906110832 75 70 0.0 0.0 0.00 0.00 0.00 88 1012.6
20260906110328 75 70 0.0 0.0 0.00 0.00 0.00 88 1012.4
20260906105827 75 70 0.0 0.0 0.00 0.00 0.00 87 1012.3
20260906105323 75 70 0.0 0.0 0.00 0.00 0.00 87 1012.4
20260906104819 75 70 0.0 0.0 0.00 0.00 0.00 87 1012.5
20260906104317 75 70 0.0 0.0 0.00 0.00 0.00 87 1012.3
20260906103816 75 70 0.0 0.0 0.00 0.00 0.00 87 1012.3
20260906103314 75 70 0.0 0.0 0.00 0.00 0.00 87 1012.3
20260906102811 76 70 0.0 0.0 0.00 0.00 0.00 87 1012.4
20260906102309 76 70 0.0 0.0 0.00 0.00 0.00 87 1012.3
20260906101805 76 70 0.0 0.0 0.00 0.00 0.00 87 1012.5
20260906101300 76 70 0.0 0.0 0.00 0.00 0.00 86 1012.3
20260906100755 76 70 0.0 0.0 0.00 0.00 0.00 86 1012.2
20260906100254 76 70 0.0 0.0 0.00 0.00 0.00 85 1012.5
20260906095750 76 70 0.0 0.0 0.00 0.00 0.00 85 1012.1
20260906095245 76 70 0.0 0.0 0.00 0.00 0.00 85 1012.4
20260906094744 76 70 0.0 0.0 0.00 0.00 0.00 85 1012.3
20260906094239 75 70 0.0 0.0 0.00 0.00 0.00 86 1012.2
20260906093735 75 70 0.0 0.0 0.00 0.00 0.00 86 1012.2
20260906093231 75 70 0.0 0.0 0.00 0.00 0.00 86 1012.2
20260906092726 76 70 0.0 0.0 0.00 0.00 0.00 85 1012.1
20260906092225 76 70 0.0 0.0 0.00 0.00 0.00 86 1012.1
20260906091722 76 70 0.0 0.0 0.00 0.00 0.00 85 1012.1
20260906091218 76 70 0.0 0.0 0.00 0.00 0.00 85 1012.2
20260906090715 76 70 0.0 0.0 0.00 0.00 0.00 85 1011.9
20260906090214 76 70 0.0 0.0 0.00 0.00 0.00 84 1012.0
20260906085713 76 70 0.0 0.0 0.00 0.00 0.00 84 1012.1
20260906085212 77 70 0.0 0.0 0.00 0.00 0.00 84 1011.8
20260906084707 77 70 0.0 0.0 0.00 0.00 0.00 83 1011.9
20260906084206 77 70 0.0 0.0 0.00 0.00 0.00 83 1012.1
20260906083701 77 50 0.0 0.0 0.00 0.00 0.00 83 1011.8
20260906083156 77 59 0.0 0.0 0.00 0.00 0.00 83 1011.9
20260906082651 77 59 0.0 0.0 0.00 0.00 0.00 82 1011.7
20260906082147 77 59 0.0 0.0 0.00 0.00 0.00 82 1011.7
20260906081643 77 59 0.0 0.0 0.00 0.00 0.00 83 1011.8
20260906081138 77 66 0.0 0.0 0.00 0.00 0.00 83 1011.8
20260906080634 77 60 0.0 0.0 0.00 0.00 0.00 82 1011.8
20260906080130 77 60 0.0 0.0 0.00 0.00 0.00 82 1011.8
20260906075630 78 58 0.0 0.0 0.00 0.00 0.00 82 1011.7
20260906075124 78 72 0.0 0.0 0.00 0.00 0.00 81 1011.7
20260906074620 78 68 0.0 0.0 0.00 0.00 0.00 82 1011.7
20260906074118 78 62 0.0 0.0 0.00 0.00 0.00 82 1011.7
20260906073613 78 61 0.0 0.0 0.00 0.00 0.00 83 1011.6
20260906073109 77 61 0.0 0.0 0.00 0.00 0.00 83 1011.6
20260906072605 78 61 0.0 0.0 0.00 0.00 0.00 83 1011.6
20260906072101 78 61 0.0 0.0 0.00 0.00 0.00 82 1011.8
20260906071557 78 61 0.0 0.0 0.00 0.00 0.00 82 1011.8
20260906071056 78 61 0.0 0.0 0.00 0.00 0.00 83 1011.9
20260906070553 77 62 0.0 0.0 0.00 0.00 0.00 83 1012.0
20260906070049 78 62 0.0 0.0 0.00 0.00 0.00 83 1011.8
20260906065548 78 62 0.0 0.0 0.00 0.00 0.00 83 1011.8
20260906065044 78 62 0.0 0.0 0.00 0.00 0.00 83 1011.7
20260906064540 78 56 0.0 0.0 0.00 0.00 0.00 82 1011.8
20260906064035 78 56 0.0 0.0 0.00 0.00 0.00 81 1011.7
20260906063530 78 56 0.0 0.0 0.00 0.00 0.00 80 1011.7
20260906063026 78 56 0.0 0.0 0.00 0.00 0.00 80 1011.9
20260906062521 78 54 0.0 0.0 0.00 0.00 0.00 79 1011.8
20260906062015 78 54 0.0 0.0 0.00 0.00 0.00 78 1011.9
20260906061511 79 54 0.0 0.0 0.00 0.00 0.00 78 1011.8
20260906061010 79 54 0.0 0.0 0.00 0.00 0.00 77 1011.8
20260906060508 79 54 0.0 0.0 0.00 0.00 0.00 77 1011.8
20260906060004 79 54 0.0 0.0 0.00 0.00 0.00 76 1011.8
20260906055500 79 54 0.0 0.0 0.00 0.00 0.00 76 1011.9
20260906054955 80 53 0.0 0.0 0.00 0.00 0.00 76 1012.0
20260906054454 80 53 0.0 0.0 0.00 0.00 0.00 75 1012.0
20260906053950 80 53 0.0 0.0 0.00 0.00 0.00 75 1011.8
20260906053446 80 52 0.0 0.0 0.00 0.00 0.00 74 1011.8
20260906052942 81 52 0.0 0.0 0.00 0.00 0.00 74 1011.7
20260906052438 81 54 0.0 0.0 0.00 0.00 0.00 74 1011.6
20260906051934 80 53 0.9 0.9 0.00 0.00 0.00 75 1011.7
20260906051430 80 69 0.0 0.0 0.00 0.00 0.00 77 1011.6
20260906050925 79 69 0.0 0.0 0.00 0.00 0.00 78 1011.8
20260906050425 80 69 0.0 0.0 0.00 0.00 0.00 78 1011.8
20260906045924 80 69 0.0 0.0 0.00 0.00 0.00 77 1011.8
20260906045423 80 69 0.0 0.0 0.00 0.00 0.00 77 1011.6
20260906044920 80 70 0.0 0.0 0.00 0.00 0.00 77 1011.6
20260906044419 80 70 0.0 0.0 0.00 0.00 0.00 76 1011.6
20260906043915 81 69 0.9 0.9 0.00 0.00 0.00 75 1011.5
20260906043411 81 56 0.0 0.0 0.00 0.00 0.00 74 1011.5
20260906042906 81 56 0.0 0.0 0.00 0.00 0.00 73 1011.6
20260906042405 81 56 0.0 0.0 0.00 0.00 0.00 73 1011.7
20260906041901 81 56 0.0 0.0 0.00 0.00 0.00 72 1011.6
20260906041357 81 56 0.0 0.0 0.00 0.00 0.00 71 1011.5
20260906040856 81 56 0.0 0.0 0.00 0.00 0.00 71 1011.6
20260906040352 81 56 0.0 0.0 0.00 0.00 0.00 71 1011.6
20260906035847 82 56 0.0 0.0 0.00 0.00 0.00 72 1011.4
20260906035342 82 56 0.0 0.0 0.00 0.00 0.00 72 1011.6
20260906034838 82 56 0.0 0.0 0.00 0.00 0.00 72 1011.5
20260906034332 82 56 0.0 0.0 0.00 0.00 0.00 72 1011.5
20260906033828 82 56 0.0 0.0 0.00 0.00 0.00 70 1011.6
20260906033327 83 56 0.0 0.0 0.00 0.00 0.00 70 1011.5
20260906032824 83 56 0.0 0.0 0.00 0.00 0.00 68 1011.4
20260906032320 83 56 0.0 0.0 0.00 0.00 0.00 67 1011.3
20260906031814 84 56 0.0 0.0 0.00 0.00 0.00 65 1011.4
20260906031310 84 56 0.0 0.0 0.00 0.00 0.00 64 1011.4
20260906030810 85 56 0.0 0.0 0.00 0.00 0.00 63 1011.8
20260906030305 86 56 0.0 0.0 0.00 0.00 0.00 62 1011.5
20260906025804 86 56 0.0 0.0 0.00 0.00 0.00 62 1011.4
20260906025259 85 60 0.0 0.0 0.00 0.00 0.00 64 1011.4
20260906024758 85 58 0.0 0.0 0.00 0.00 0.00 65 1011.3
20260906024257 85 58 0.0 0.0 0.00 0.00 0.00 65 1011.2
20260906023752 86 58 0.0 0.0 0.00 0.00 0.00 64 1011.2
20260906023248 85 61 0.0 0.0 0.00 0.00 0.00 65 1011.1
20260906022744 86 57 0.0 0.0 0.00 0.00 0.00 65 1011.0
20260906022238 86 57 0.0 0.0 0.00 0.00 0.00 64 1011.0
20260906021735 87 57 0.0 0.0 0.00 0.00 0.00 63 1010.8
20260906021234 87 66 0.0 0.0 0.00 0.00 0.00 62 1010.8
20260906020729 87 65 0.0 0.0 0.00 0.00 0.00 62 1010.8
20260906020223 87 63 0.0 0.0 0.00 0.00 0.00 63 1010.9
20260906015723 87 63 0.0 0.0 0.00 0.00 0.00 62 1010.6
20260906015221 87 63 0.0 0.0 0.00 0.00 0.00 62 1010.6
20260906014716 87 62 0.0 0.0 0.00 0.00 0.00 61 1010.7
20260906014212 87 62 0.0 0.0 0.00 0.00 0.00 61 1010.5
20260906013708 88 62 0.0 0.0 0.00 0.00 0.00 59 1010.7
20260906013208 89 62 0.0 0.0 0.00 0.00 0.00 58 1010.5
20260906012703 89 62 0.0 0.0 0.00 0.00 0.00 56 1010.6
20260906012158 90 62 0.0 0.0 0.00 0.00 0.00 55 1010.5
20260906011654 90 62 0.0 0.0 0.00 0.00 0.00 54 1010.3
20260906011154 91 62 0.0 0.0 0.00 0.00 0.00 55 1010.5
20260906010649 91 62 0.0 0.0 0.00 0.00 0.00 55 1010.4
20260906010146 92 62 0.0 0.0 0.00 0.00 0.00 52 1010.3
20260906005645 93 62 0.0 0.0 0.00 0.00 0.00 51 1010.3
20260906005144 93 62 0.0 0.0 0.00 0.00 0.00 48 1010.3
20260906004643 94 63 0.0 0.0 0.00 0.00 0.00 45 1010.2
20260906004138 95 63 0.0 0.0 0.00 0.00 0.00 44 1010.4
20260906003633 96 63 0.0 0.0 0.00 0.00 0.00 41 1010.3
20260906003129 98 63 0.0 0.0 0.00 0.00 0.00 40 1010.2
20260906002624 99 61 0.0 0.0 0.00 0.00 0.00 39 1010.1
20260906002119 100 60 0.0 0.0 0.00 0.00 0.00 39 1010.2
20260906001615 100 61 0.0 0.0 0.00 0.00 0.00 39 1010.1
20260906001114 100 71 0.0 0.0 0.00 0.00 0.00 38 1010.1
20260906000610 101 45 0.0 0.0 0.00 0.00 0.00 38 1010.4
20260906000106 101 45 0.0 0.0 0.00 0.00 0.00 37 1010.1
20260905235604 100 52 0.0 0.0 0.00 0.00 0.00 39 1010.0
20260905235059 100 42 0.0 0.0 0.00 0.00 0.00 38 1010.0
20260905234555 101 45 0.0 0.0 0.00 0.00 0.00 39 1010.1
20260905234050 101 53 0.0 0.0 0.00 0.00 0.00 38 1009.8
20260905233550 101 81 0.0 0.0 0.00 0.00 0.00 37 1009.9
20260905233050 101 31 0.0 0.0 0.00 0.00 0.00 37 1009.8
20260905232545 101 32 0.0 0.0 0.00 0.00 0.00 37 1009.9
20260905232041 101 51 0.0 0.0 0.00 0.00 0.00 39 1009.9
20260905231536 101 62 0.9 0.9 0.00 0.00 0.00 38 1010.0
20260905231032 101 80 0.0 0.0 0.00 0.00 0.00 38 1009.9
20260905230531 101 53 0.9 0.9 0.00 0.00 0.00 38 1009.8
20260905230030 101 28 1.7 1.7 0.00 0.00 0.00 37 1009.8
20260905225525 101 7 1.7 2.6 0.00 0.00 0.00 37 1009.8
20260905225020 101 18 2.6 2.6 0.00 0.00 0.00 36 1009.9
20260905224515 102 32 0.9 1.7 0.00 0.00 0.00 36 1009.8
20260905224014 102 67 0.9 0.9 0.00 0.00 0.00 37 1009.8
20260905223512 102 74 0.0 0.9 0.00 0.00 0.00 36 1009.8
20260905223008 102 73 0.0 0.0 0.00 0.00 0.00 37 1009.9
20260905222508 102 118 0.9 1.7 0.00 0.00 0.00 36 1010.0
20260905222003 102 80 0.9 0.9 0.00 0.00 0.00 37 1010.0
20260905221459 102 75 0.9 1.7 0.00 0.00 0.00 36 1010.0
20260905220955 102 94 0.9 0.9 0.00 0.00 0.00 36 1010.1
20260905220451 103 85 0.0 0.0 0.00 0.00 0.00 35 1010.0
20260905215950 103 68 0.9 0.9 0.00 0.00 0.00 36 1010.0
20260905215446 103 91 0.9 0.9 0.00 0.00 0.00 36 1010.2
20260905214942 103 57 0.0 0.0 0.00 0.00 0.00 36 1010.3
20260905214438 102 18 0.0 0.0 0.00 0.00 0.00 37 1010.5
20260905213937 102 82 0.9 0.9 0.00 0.00 0.00 36 1010.5
20260905213434 102 88 0.9 0.9 0.00 0.00 0.00 36 1010.5
20260905212929 103 97 0.0 0.0 0.00 0.00 0.00 36 1010.6
20260905212424 103 60 0.9 1.7 0.00 0.00 0.00 35 1010.6
20260905211922 102 88 1.7 1.7 0.00 0.00 0.00 36 1010.5
20260905211419 102 75 0.0 0.0 0.00 0.00 0.00 37 1010.5
20260905210914 102 86 1.7 1.7 0.00 0.00 0.00 36 1010.8
20260905210408 103 46 1.7 1.7 0.00 0.00 0.00 36 1010.8
20260905205908 102 47 0.9 0.9 0.00 0.00 0.00 36 1010.8
20260905205403 102 62 0.9 0.9 0.00 0.00 0.00 36 1011.0
20260905204901 103 94 0.9 0.9 0.00 0.00 0.00 36 1010.9
20260905204358 103 66 0.0 0.0 0.00 0.00 0.00 36 1011.2
20260905203856 102 87 0.9 1.7 0.00 0.00 0.00 37 1011.2
20260905203352 102 39 0.9 0.9 0.00 0.00 0.00 36 1011.2
20260905202848 102 58 1.7 1.7 0.00 0.00 0.00 37 1011.2
20260905202342 102 342 0.9 0.9 0.00 0.00 0.00 36 1011.5
20260905201838 102 53 1.7 1.7 0.00 0.00 0.00 37 1011.5
20260905201334 101 71 0.9 0.9 0.00 0.00 0.00 40 1011.6
20260905200833 101 57 0.9 0.9 0.00 0.00 0.00 39 1011.8
20260905200330 102 102 2.6 3.5 0.00 0.00 0.00 37 1011.9
20260905195827 102 76 1.7 1.7 0.00 0.00 0.00 37 1011.8
20260905195323 102 75 0.9 0.9 0.00 0.00 0.00 38 1011.9
20260905194819 102 107 1.7 2.6 0.00 0.00 0.00 37 1012.0